Weather History for KFYG - July, 2013

Change the Weather History Date:

Monday, July 29, 2013

  Actual Average (KSTL) Record (KSTL)
Temperature  
Mean Temperature 65 °F 80 °F  
Max Temperature 75 °F 89 °F 103 °F (1999)
Min Temperature 55 °F 71 °F 54 °F (1971)
Degree Days  
Heating Degree Days 0 0  
Month to date heating degree days 0  
Since 1 June heating degree days 5  
Since 1 July heating degree days 0  
Cooling Degree Days 0 15  
Month to date cooling degree days 435  
Year to date cooling degree days 943  
Since 1 June cooling degree days 769  
Growing Degree Days 15 (Base 50)    
Moisture  
Dew Point 63 °F    
Average Humidity 90    
Maximum Humidity 100    
Minimum Humidity 69    
Precipitation  
Precipitation 0.00 in 0.12 in 2.74 in (1956)
Month to date precipitation 3.85  
Year to date precipitation 24.50  
Snow  
Snow 0.00 in 0.00 in 0.00 in (2013)
Month to date snowfall 0.0  
Since 1 June snowfall 0.0  
Since 1 July snowfall 0.0  
Snow Depth -    
Sea Level Pressure  
Sea Level Pressure 30.11 in    
Wind  
Wind Speed 1 mph (ESE)    
Max Wind Speed 9 mph    
Max Gust Speed -    
Visibility 10 miles    
Events Fog    
T = Trace of Precipitation, MM = Missing Value Source: NWS Daily Summary

Daily Weather History Graph

Daily Weather History Graph

Search for Another Location

Airport or City:

Trip Planner

Search our weather history database for the weather conditions in past years. The results will help you decide how hot, cold, wet, or windy it might be!

Date:

Astronomy

Jul. 29, 2013 Rise Set
Actual Time 6:03 AM CDT 8:17 PM CDT
Civil Twilight 5:33 AM CDT 8:46 PM CDT
Nautical Twilight 4:56 AM CDT 9:23 PM CDT
Astronomical Twilight 4:16 AM CDT 10:02 PM CDT
Moon No Moon Rise 1:39 PM CDT (7/29)
Length of Visible Light 15h 13m
Length of Day
14h 13m
Waning Gibbous, 50% of the Moon is Illuminated
Jul 29
Waning Gibbous
Jul 29
Last Quarter
Aug 6
New
Aug 14
First Quarter
Aug 20
Full

Hourly Weather History & Observations

Time (CDT) Temp. Dew Point Humidity Pressure Visibility Wind Dir Wind Speed Gust Speed Precip Events Conditions
12:15 AM 59.0 °F 57.2 °F 94% 30.06 in 10.0 mi Calm Calm - N/A   Clear
12:35 AM 57.2 °F 57.2 °F 100% 30.07 in 10.0 mi Calm Calm - N/A   Clear
12:55 AM 57.2 °F 57.2 °F 100% 30.07 in 10.0 mi Calm Calm - N/A   Clear
1:15 AM 57.2 °F 57.2 °F 100% 30.07 in 10.0 mi Calm Calm - N/A   Clear
1:35 AM 57.2 °F 57.2 °F 100% 30.08 in 10.0 mi Calm Calm - N/A   Clear
1:55 AM 57.2 °F 57.2 °F 100% 30.07 in 10.0 mi Calm Calm - N/A   Clear
2:15 AM 55.4 °F 55.4 °F 100% 30.07 in 10.0 mi Calm Calm - N/A   Clear
2:55 AM 55.4 °F 55.4 °F 100% 30.07 in 10.0 mi Calm Calm - N/A   Clear
3:15 AM 55.4 °F 55.4 °F 100% 30.07 in 10.0 mi Calm Calm - N/A   Clear
3:35 AM 55.4 °F 55.4 °F 100% 30.08 in 10.0 mi Calm Calm - N/A   Clear
3:55 AM 55.4 °F 55.4 °F 100% 30.08 in 10.0 mi Calm Calm - N/A   Clear
4:15 AM 55.4 °F 55.4 °F 100% 30.08 in 10.0 mi Calm Calm - N/A   Clear
4:35 AM 55.4 °F 55.4 °F 100% 30.09 in 10.0 mi Calm Calm - N/A   Clear
4:55 AM 55.4 °F 55.4 °F 100% 30.10 in 10.0 mi Calm Calm - N/A   Clear
5:15 AM 55.4 °F 55.4 °F 100% 30.11 in 10.0 mi Calm Calm - N/A   Mostly Cloudy
5:35 AM 57.2 °F 57.2 °F 100% 30.11 in 10.0 mi Calm Calm - N/A   Overcast
5:55 AM 57.2 °F 57.2 °F 100% 30.12 in 0.2 mi Calm Calm - N/A Fog Fog
6:15 AM 57.2 °F 57.2 °F 100% 30.12 in 0.2 mi Calm Calm - N/A Fog Fog
6:35 AM 59.0 °F 59.0 °F 100% 30.11 in 0.2 mi Calm Calm - N/A Fog Fog
6:55 AM 59.0 °F 59.0 °F 100% 30.11 in 6.0 mi Calm Calm - N/A   Mostly Cloudy
7:15 AM 60.8 °F 60.8 °F 100% 30.12 in 9.0 mi Calm Calm - N/A   Overcast
7:35 AM 60.8 °F 60.8 °F 100% 30.13 in 10.0 mi Calm Calm - N/A   Overcast
7:55 AM 62.6 °F 62.6 °F 100% 30.14 in 10.0 mi Calm Calm - N/A   Overcast
8:15 AM 62.6 °F 62.6 °F 100% 30.14 in 10.0 mi Calm Calm - N/A   Overcast
8:35 AM 64.4 °F 64.4 °F 100% 30.14 in 10.0 mi Calm Calm - N/A   Overcast
8:55 AM 66.2 °F 64.4 °F 94% 30.15 in 10.0 mi Calm Calm - N/A   Mostly Cloudy
9:15 AM 66.2 °F 64.4 °F 94% 30.15 in 10.0 mi Calm Calm - N/A   Mostly Cloudy
9:35 AM 66.2 °F 64.4 °F 94% 30.16 in 10.0 mi Calm Calm - N/A   Overcast
9:55 AM 68.0 °F 64.4 °F 88% 30.16 in 10.0 mi Calm Calm - N/A   Overcast
10:15 AM 68.0 °F 64.4 °F 88% 30.15 in 10.0 mi Calm Calm - N/A   Scattered Clouds
10:35 AM 68.0 °F 64.4 °F 88% 30.15 in 10.0 mi Calm Calm - N/A   Scattered Clouds
10:55 AM 68.0 °F 64.4 °F 88% 30.15 in 10.0 mi SSE 4.6 mph - N/A   Mostly Cloudy
11:15 AM 68.0 °F 64.4 °F 88% 30.15 in 10.0 mi South 6.9 mph - N/A   Overcast
11:35 AM 68.0 °F 64.4 °F 88% 30.16 in 10.0 mi South 6.9 mph - N/A   Overcast
11:55 AM 68.0 °F 64.4 °F 88% 30.16 in 10.0 mi South 5.8 mph - N/A   Overcast
12:15 PM 68.0 °F 62.6 °F 83% 30.15 in 10.0 mi Calm Calm - N/A   Mostly Cloudy
12:35 PM 68.0 °F 64.4 °F 88% 30.14 in 10.0 mi Calm Calm - N/A   Mostly Cloudy
12:55 PM 69.8 °F 64.4 °F 83% 30.14 in 10.0 mi Calm Calm - N/A   Mostly Cloudy
1:15 PM 69.8 °F 64.4 °F 83% 30.14 in 10.0 mi Calm Calm - N/A   Mostly Cloudy
1:35 PM 71.6 °F 64.4 °F 78% 30.14 in 10.0 mi Calm Calm - N/A   Scattered Clouds
1:55 PM 73.4 °F 62.6 °F 69% 30.13 in 10.0 mi Calm Calm - N/A   Partly Cloudy
2:15 PM 75.2 °F 64.4 °F 69% 30.14 in 10.0 mi Calm Calm - N/A   Scattered Clouds
2:35 PM 73.4 °F 64.4 °F 73% 30.14 in 10.0 mi Calm Calm - N/A   Mostly Cloudy
2:55 PM 73.4 °F 64.4 °F 73% 30.14 in 10.0 mi Calm Calm - N/A   Overcast
3:15 PM 73.4 °F 64.4 °F 73% 30.14 in 10.0 mi Calm Calm - N/A   Mostly Cloudy
3:35 PM 73.4 °F 64.4 °F 73% 30.13 in 10.0 mi East 3.5 mph - N/A   Mostly Cloudy
3:55 PM 73.4 °F 66.2 °F 78% 30.13 in 10.0 mi East 3.5 mph - N/A   Scattered Clouds
4:15 PM 73.4 °F 64.4 °F 73% 30.13 in 10.0 mi Calm Calm - N/A   Partly Cloudy
4:35 PM 73.4 °F 66.2 °F 78% 30.13 in 10.0 mi ENE 4.6 mph - N/A   Mostly Cloudy
4:55 PM 73.4 °F 66.2 °F 78% 30.12 in 10.0 mi East 3.5 mph - N/A   Partly Cloudy
5:15 PM 73.4 °F 66.2 °F 78% 30.12 in 10.0 mi Calm Calm - N/A   Clear
5:35 PM 73.4 °F 66.2 °F 78% 30.12 in 10.0 mi East 3.5 mph - N/A   Clear
5:55 PM 71.6 °F 66.2 °F 83% 30.12 in 10.0 mi Calm Calm - N/A   Clear
6:15 PM 71.6 °F 66.2 °F 83% 30.11 in 10.0 mi East 4.6 mph - N/A   Clear
6:35 PM 71.6 °F 66.2 °F 83% 30.10 in 10.0 mi East 5.8 mph - N/A   Clear
6:55 PM 69.8 °F 66.2 °F 88% 30.10 in 10.0 mi East 5.8 mph - N/A   Clear
7:15 PM 69.8 °F 68.0 °F 94% 30.10 in 10.0 mi East 4.6 mph - N/A   Partly Cloudy
7:35 PM 71.6 °F 68.0 °F 88% 30.09 in 10.0 mi ESE 5.8 mph - N/A   Clear
7:55 PM 69.8 °F 68.0 °F 94% 30.10 in 10.0 mi East 4.6 mph - N/A   Scattered Clouds
8:15 PM 69.8 °F 68.0 °F 94% 30.09 in 10.0 mi East 5.8 mph - N/A   Mostly Cloudy
8:35 PM 71.6 °F 68.0 °F 88% 30.10 in 10.0 mi ESE 4.6 mph - N/A   Scattered Clouds
8:55 PM 71.6 °F 68.0 °F 88% 30.10 in 10.0 mi ESE 4.6 mph - N/A   Overcast
9:15 PM 71.6 °F 66.2 °F 83% 30.10 in 10.0 mi East 8.1 mph - N/A   Overcast
9:35 PM 71.6 °F 68.0 °F 88% 30.11 in 10.0 mi Calm Calm - N/A   Overcast
9:55 PM 69.8 °F 68.0 °F 94% 30.11 in 10.0 mi SE 5.8 mph - N/A   Mostly Cloudy
10:15 PM 69.8 °F 66.2 °F 88% 30.11 in 10.0 mi SE 6.9 mph - N/A   Mostly Cloudy
10:35 PM 69.8 °F 66.2 °F 88% 30.10 in 10.0 mi ESE 9.2 mph - N/A   Overcast
10:55 PM 69.8 °F 66.2 °F 88% 30.09 in 10.0 mi SE 6.9 mph - N/A   Mostly Cloudy
11:15 PM 69.8 °F 66.2 °F 88% 30.09 in 10.0 mi ESE 6.9 mph - N/A   Mostly Cloudy
11:35 PM 69.8 °F 64.4 °F 83% 30.09 in 10.0 mi ESE 8.1 mph - N/A   Scattered Clouds
11:55 PM 69.8 °F 64.4 °F 83% 30.10 in 10.0 mi SE 5.8 mph - N/A   Scattered Clouds